📊 Raw Sensor Data

Showing records 42426 to 42450 of 85,000 total

ID Distance (ft) Battery V Battery A Int Temp (°F) Int Humid (%) Ext Temp (°F) Solar V RSSI SNR Time Stamp
42587 14.7 4.01 -5 57 45 57 0.00 -75 8 06/04/2025 11:30 PM
42586 14.7 3.95 -5 57 45 58 0.00 -75 8 06/04/2025 11:15 PM
42585 14.7 3.95 -5 58 46 59 0.00 -76 8 06/04/2025 11:00 PM
42584 14.7 4.01 -5 59 46 59 0.00 -74 7 06/04/2025 10:45 PM
42583 14.7 3.95 -5 59 46 60 0.00 -69 8 06/04/2025 10:30 PM
42582 15.3 4.01 -5 59 47 60 0.00 -69 8 06/04/2025 10:15 PM
42581 15.3 3.96 -5 60 47 60 0.00 -70 8 06/04/2025 10:00 PM
42580 15.3 3.96 -5 61 48 61 0.00 -70 8 06/04/2025 09:45 PM
42579 15.3 3.96 -5 62 49 61 0.00 -71 7 06/04/2025 09:30 PM
42578 15.3 3.96 -5 63 50 62 0.00 -69 7 06/04/2025 09:15 PM
42577 15.3 4.02 -5 64 51 64 0.00 -69 8 06/04/2025 09:00 PM
42576 15.3 4.02 -5 66 52 65 0.20 -70 8 06/04/2025 08:45 PM
42575 15.3 4.01 -9 68 53 66 2.60 -69 8 06/04/2025 08:30 PM
42574 15.3 4.02 -5 72 53 68 4.50 -70 8 06/04/2025 08:15 PM
42573 15.4 4.04 0 76 53 71 4.50 -69 8 06/04/2025 08:00 PM
42572 15.4 4.05 8 79 52 73 4.50 -70 8 06/04/2025 07:45 PM
42571 15.4 4.06 0 83 51 76 4.50 -69 8 06/04/2025 07:30 PM
42570 15.4 4.07 9 85 52 78 4.50 -68 7 06/04/2025 07:15 PM
42569 15.4 4.03 27 87 51 80 4.50 -73 8 06/04/2025 07:00 PM
42568 15.4 4.01 0 90 51 83 5.10 -70 7 06/04/2025 06:45 PM
42567 15.5 4.01 0 92 51 84 5.10 -71 8 06/04/2025 06:15 PM
42566 15.5 4.12 0 94 50 86 5.10 -78 8 06/04/2025 06:00 PM
42565 15.5 4.09 0 96 49 88 5.10 -75 7 06/04/2025 05:45 PM
42564 15.5 4.01 0 97 48 89 5.10 -73 8 06/04/2025 05:30 PM
42563 15.5 4.02 0 98 47 90 5.10 -75 8 06/04/2025 05:00 PM